Flag for Poland Weather past 2 weeks in Elbląg, Poland

Now
63 °F

Overcast.


Feels Like: 63 °F
Forecast: 57 / 72 °F
Wind: 2 mph from East

Location: Hel

Current Time: Aug 29, 2014 at 8:40:47 PM

Latest Report: Aug 29, 2014 at 7:00 PM


Visibility: 16 mi

Pressure: 29.97 "Hg

Humidity: 86%

Dew point: 58 °F

Location of ElblągLocation

Historic Weather in Elbląg — Graph

°F

Elbląg temperature yesterday

Maximum temperature yesterday: 69 °F (at 2:00 PM)
Minimum temperature yesterday: 58 °F (at 6:00 AM)
Average temperature yesterday: 62 °F

Past Weeks' High & Low Weather Summary

 TemperatureHumidityPressure
High71 °F (Aug 15, 12:00 PM)96% (Aug 15, 5:00 AM)30.01 "Hg (Aug 15, 5:00 AM)
Low50 °F (Aug 24, 2:00 AM)49% (Aug 21, 2:00 PM)29.57 "Hg (Aug 18, 6:00 PM)
Average61 °F73%29.82 "Hg
* Reported Aug 14 7:00 PM — Aug 29 7:00 PM, Elbląg, Weather by CustomWeather, © 2014

Note: Actual official high and low records may vary slightly from our data, if they occured in-between our weather recording intervals... More about our weather records

Advertising

Elbląg weather history for previous 24 hours

 ConditionsComfort  
Time TempWeatherWind HumidityBarometerVisibility
7:00 PM
Aug 29
63 °FOvercast.2 mph86%29.97 "Hg16 mi
6:00 PM64 °FPartly sunny.2 mph83%29.98 "Hg16 mi
5:00 PM65 °FPartly sunny.3 mph78%29.98 "Hg19 mi
4:00 PM65 °FScattered clouds.2 mph74%29.99 "Hg19 mi
3:00 PM67 °FScattered clouds.3 mph69%29.99 "Hg19 mi
2:00 PM67 °FScattered clouds.2 mph73%30.00 "Hg19 mi
1:00 PM67 °FPassing clouds.3 mph72%30.00 "Hg19 mi
12:00 PM68 °FPassing clouds.2 mph69%30.01 "Hg19 mi
11:00 AM65 °FPassing clouds.2 mph74%30.01 "Hg19 mi
10:00 AM64 °FPassing clouds.3 mph79%30.01 "Hg19 mi
9:00 AM62 °FPassing clouds.3 mph84%30.01 "Hg19 mi
8:00 AM60 °FScattered clouds.3 mph88%30.01 "Hg16 mi
7:00 AM59 °FScattered clouds.3 mph89%30.00 "Hg16 mi
6:00 AM59 °FPartly sunny.3 mph88%29.99 "Hg16 mi
5:00 AM60 °FPassing clouds.5 mph85%29.99 "Hg16 mi
4:00 AM59 °FPassing clouds.3 mph86%30.00 "Hg16 mi
3:00 AM59 °FPassing clouds.3 mph86%29.99 "Hg12 mi
2:00 AM59 °FPassing clouds.3 mph86%30.00 "Hg16 mi
1:00 AM60 °FPassing clouds.5 mph87%30.00 "Hg16 mi
12:00 AM60 °FPassing clouds.3 mph86%30.00 "Hg16 mi
11:00 PM
Aug 28
60 °FPassing clouds.3 mph87%30.00 "Hg16 mi
10:00 PM59 °FPassing clouds.3 mph86%30.00 "Hg19 mi
9:00 PM60 °FPassing clouds.3 mph84%29.99 "Hg19 mi
8:00 PM61 °FPassing clouds.3 mph81%29.99 "Hg12 mi
Weather by CustomWeather, © 2014

See weather overviewHow to use our weather pages